| time (UTC) | temp C | wind direction | speed KPH | gust KPH | rain 1hr cm | rain 24hr cm | rain mn cm | humidity % | barometer mb |
| 20260510033048 | 25 | 176 | 8.0 | 24.1 | 0.00 | 0.03 | 0.03 | 62 | 1010.2 |
| 20260510031540 | 25 | 186 | 9.7 | 19.3 | 0.00 | 0.03 | 0.03 | 61 | 1010.3 |
| 20260510030038 | 25 | 157 | 8.0 | 19.3 | 0.00 | 0.03 | 0.03 | 60 | 1010.1 |
| 20260510024536 | 25 | 177 | 8.0 | 17.7 | 0.00 | 0.03 | 0.03 | 58 | 1010.1 |
| 20260510023034 | 25 | 169 | 8.0 | 19.3 | 0.00 | 0.03 | 0.03 | 56 | 1010.2 |
| 20260510021543 | 26 | 121 | 8.0 | 16.1 | 0.00 | 0.03 | 0.03 | 56 | 1009.9 |
| 20260510020040 | 26 | 188 | 8.0 | 19.3 | 0.00 | 0.03 | 0.03 | 57 | 1009.6 |
| 20260510014540 | 26 | 173 | 8.0 | 14.5 | 0.00 | 0.03 | 0.03 | 56 | 1009.6 |
| 20260510013035 | 27 | 141 | 6.4 | 16.1 | 0.00 | 0.03 | 0.03 | 55 | 1009.6 |
| 20260510011536 | 27 | 126 | 4.8 | 16.1 | 0.00 | 0.03 | 0.03 | 53 | 1009.5 |
| 20260510010038 | 28 | 168 | 6.4 | 16.1 | 0.00 | 0.03 | 0.03 | 50 | 1009.4 |
| 20260510004540 | 28 | 132 | 8.0 | 20.9 | 0.00 | 0.03 | 0.03 | 48 | 1009.3 |
| 20260510003050 | 29 | 201 | 8.0 | 22.5 | 0.00 | 0.03 | 0.03 | 47 | 1009.3 |
| 20260510001536 | 30 | 194 | 6.4 | 17.7 | 0.00 | 0.03 | 0.03 | 44 | 1009.4 |
| 20260510000039 | 30 | 175 | 6.4 | 16.1 | 0.00 | 0.03 | 0.03 | 43 | 1009.5 |
| 20260509234544 | 30 | 161 | 11.3 | 19.3 | 0.00 | 0.03 | 0.03 | 42 | 1009.5 |
| 20260509233040 | 30 | 170 | 8.0 | 19.3 | 0.00 | 0.03 | 0.03 | 41 | 1009.6 |
| 20260509231539 | 30 | 161 | 8.0 | 19.3 | 0.00 | 0.03 | 0.03 | 41 | 1009.5 |
| 20260509230041 | 31 | 167 | 4.8 | 16.1 | 0.00 | 0.03 | 0.03 | 42 | 1009.5 |
| 20260509224546 | 31 | 128 | 9.7 | 17.7 | 0.00 | 0.03 | 0.03 | 40 | 1009.6 |
| 20260509223047 | 31 | 196 | 9.7 | 20.9 | 0.00 | 0.03 | 0.03 | 40 | 1009.6 |
| 20260509221538 | 31 | 122 | 9.7 | 20.9 | 0.00 | 0.03 | 0.03 | 40 | 1009.6 |
| 20260509220039 | 31 | 163 | 9.7 | 19.3 | 0.00 | 0.03 | 0.03 | 39 | 1009.5 |
| 20260509214542 | 31 | 202 | 6.4 | 16.1 | 0.00 | 0.03 | 0.03 | 38 | 1009.6 |
| 20260509213041 | 32 | 132 | 6.4 | 17.7 | 0.00 | 0.03 | 0.03 | 41 | 1009.7 |
| 20260509211537 | 31 | 214 | 4.8 | 19.3 | 0.00 | 0.03 | 0.03 | 41 | 1009.9 |
| 20260509210037 | 31 | 214 | 6.4 | 16.1 | 0.00 | 0.03 | 0.03 | 41 | 1010.2 |
| 20260509204542 | 31 | 169 | 8.0 | 16.1 | 0.00 | 0.03 | 0.03 | 43 | 1010.4 |
| 20260509203052 | 32 | 227 | 6.4 | 20.9 | 0.00 | 0.03 | 0.03 | 41 | 1010.7 |
| 20260509201539 | 31 | 232 | 6.4 | 17.7 | 0.00 | 0.03 | 0.03 | 45 | 1010.9 |
| 20260509200038 | 31 | 230 | 6.4 | 11.3 | 0.00 | 0.03 | 0.03 | 44 | 1011.0 |
| 20260509194535 | 31 | 192 | 8.0 | 17.7 | 0.00 | 0.03 | 0.03 | 46 | 1011.2 |
| 20260509193041 | 31 | 198 | 6.4 | 16.1 | 0.00 | 0.03 | 0.03 | 48 | 1011.4 |
| 20260509191544 | 30 | 109 | 4.8 | 14.5 | 0.00 | 0.03 | 0.03 | 47 | 1011.6 |
| 20260509190041 | 31 | 145 | 3.2 | 9.7 | 0.00 | 0.03 | 0.03 | 48 | 1011.6 |
| 20260509184545 | 30 | 223 | 3.2 | 11.3 | 0.00 | 0.03 | 0.03 | 46 | 1011.7 |
| 20260509183038 | 30 | 185 | 8.0 | 14.5 | 0.00 | 0.03 | 0.03 | 48 | 1011.9 |
| 20260509181603 | 29 | 336 | 3.2 | 11.3 | 0.00 | 0.03 | 0.03 | 54 | 1012.1 |
| 20260509180108 | 29 | 227 | 3.2 | 9.7 | 0.00 | 0.03 | 0.03 | 54 | 1012.4 |
| 20260509174540 | 29 | 115 | 3.2 | 11.3 | 0.00 | 0.03 | 0.03 | 54 | 1012.5 |
| 20260509173043 | 28 | 249 | 3.2 | 6.4 | 0.00 | 0.03 | 0.03 | 60 | 1012.9 |
| 20260509171545 | 28 | 226 | 1.6 | 8.0 | 0.00 | 0.03 | 0.03 | 59 | 1013.0 |
| 20260509170048 | 27 | 183 | 1.6 | 9.7 | 0.00 | 0.03 | 0.03 | 59 | 1013.2 |
| 20260509164540 | 26 | 156 | 3.2 | 8.0 | 0.00 | 0.03 | 0.03 | 65 | 1013.3 |
| 20260509163038 | 26 | 204 | 3.2 | 9.7 | 0.00 | 0.03 | 0.03 | 65 | 1013.3 |
| 20260509161545 | 26 | 318 | 1.6 | 6.4 | 0.00 | 0.03 | 0.03 | 68 | 1013.3 |
| 20260509160036 | 25 | 230 | 1.6 | 8.0 | 0.00 | 0.03 | 0.03 | 72 | 1013.3 |
| 20260509154535 | 25 | 312 | 3.2 | 8.0 | 0.00 | 0.03 | 0.03 | 72 | 1013.3 |
| 20260509153040 | 24 | 306 | 3.2 | 12.9 | 0.00 | 0.03 | 0.03 | 74 | 1013.4 |
| 20260509151540 | 23 | 215 | 4.8 | 14.5 | 0.00 | 0.03 | 0.03 | 76 | 1013.3 |
| 20260509150038 | 23 | 289 | 6.4 | 12.9 | 0.00 | 0.03 | 0.03 | 77 | 1013.3 |
| 20260509144538 | 23 | 279 | 6.4 | 14.5 | 0.00 | 0.03 | 0.03 | 78 | 1013.2 |
| 20260509143041 | 22 | 296 | 6.4 | 12.9 | 0.00 | 0.03 | 0.03 | 80 | 1013.3 |
| 20260509141542 | 22 | 270 | 4.8 | 9.7 | 0.00 | 0.03 | 0.03 | 80 | 1013.1 |
| 20260509140038 | 20 | 298 | 1.6 | 6.4 | 0.00 | 0.03 | 0.03 | 86 | 1013.3 |
| 20260509134539 | 19 | 16 | 3.2 | 6.4 | 0.00 | 0.03 | 0.03 | 86 | 1013.3 |
| 20260509133054 | 18 | 312 | 1.6 | 4.8 | 0.00 | 0.03 | 0.03 | 88 | 1013.3 |
| 20260509131536 | 18 | 345 | 0.0 | 3.2 | 0.00 | 0.03 | 0.03 | 87 | 1013.1 |
| 20260509130040 | 17 | 0 | 0.0 | 4.8 | 0.00 | 0.03 | 0.03 | 89 | 1012.9 |
| 20260509124538 | 17 | 0 | 0.0 | 3.2 | 0.00 | 0.03 | 0.03 | 90 | 1012.7 |
| 20260509123040 | 16 | 254 | 0.0 | 3.2 | 0.00 | 0.03 | 0.03 | 91 | 1012.4 |
| 20260509121543 | 16 | 0 | 0.0 | 1.6 | 0.00 | 0.03 | 0.03 | 91 | 1012.2 |
| 20260509120037 | 17 | 180 | 0.0 | 4.8 | 0.00 | 0.03 | 0.03 | 91 | 1012.1 |
| 20260509114540 | 16 | 79 | 0.0 | 4.8 | 0.00 | 0.03 | 0.03 | 92 | 1012.0 |
| 20260509113042 | 16 | 323 | 0.0 | 3.2 | 0.00 | 0.03 | 0.03 | 91 | 1011.6 |
| 20260509111539 | 16 | 0 | 0.0 | 4.8 | 0.00 | 0.03 | 0.03 | 91 | 1011.5 |
| 20260509110038 | 16 | 0 | 0.0 | 4.8 | 0.00 | 0.03 | 0.03 | 90 | 1011.3 |
| 20260509104551 | 17 | 0 | 0.0 | 4.8 | 0.00 | 0.03 | 0.03 | 90 | 1011.2 |
| 20260509103038 | 17 | 20 | 1.6 | 4.8 | 0.00 | 0.03 | 0.03 | 89 | 1011.4 |
| 20260509101540 | 17 | 324 | 1.6 | 6.4 | 0.00 | 0.03 | 0.03 | 88 | 1011.4 |
| 20260509100041 | 18 | 264 | 3.2 | 9.7 | 0.00 | 0.03 | 0.03 | 88 | 1011.6 |
| 20260509094537 | 17 | 225 | 3.2 | 6.4 | 0.00 | 0.03 | 0.03 | 89 | 1011.6 |
| 20260509093036 | 17 | 235 | 3.2 | 14.5 | 0.00 | 0.03 | 0.03 | 89 | 1011.2 |
| 20260509091540 | 17 | 186 | 4.8 | 16.1 | 0.00 | 0.03 | 0.03 | 88 | 1011.4 |
| 20260509090051 | 17 | 130 | 6.4 | 16.1 | 0.00 | 0.03 | 0.03 | 86 | 1011.9 |
| 20260509084539 | 17 | 44 | 4.8 | 12.9 | 0.00 | 0.03 | 0.03 | 84 | 1012.0 |
| 20260509083040 | 17 | 233 | 3.2 | 8.0 | 0.00 | 0.03 | 0.03 | 83 | 1011.5 |
| 20260509081550 | 17 | 169 | 9.7 | 19.3 | 0.00 | 0.03 | 0.03 | 82 | 1011.7 |
| 20260509080040 | 17 | 223 | 6.4 | 16.1 | 0.03 | 0.03 | 0.03 | 81 | 1011.9 |
| 20260509074538 | 17 | 133 | 4.8 | 11.3 | 0.03 | 0.03 | 0.03 | 79 | 1011.7 |
| 20260509073046 | 17 | 94 | 3.2 | 20.9 | 0.03 | 0.03 | 0.03 | 82 | 1012.0 |
| 20260509071545 | 17 | 111 | 9.7 | 24.1 | 0.03 | 0.03 | 0.03 | 81 | 1013.3 |
| 20260509070042 | 18 | 55 | 11.3 | 35.4 | 0.00 | 0.00 | 0.00 | 78 | 1014.3 |
| 20260509064542 | 19 | 33 | 22.5 | 53.1 | 0.00 | 0.00 | 0.00 | 82 | 1014.6 |
| 20260509063058 | 20 | 10 | 11.3 | 27.4 | 0.00 | 0.00 | 0.00 | 90 | 1014.3 |
| 20260509061601 | 20 | 25 | 8.0 | 16.1 | 0.00 | 0.00 | 0.00 | 90 | 1013.6 |
| 20260509060051 | 20 | 346 | 12.9 | 27.4 | 0.00 | 0.00 | 0.00 | 89 | 1013.4 |
| 20260509054535 | 20 | 163 | 4.8 | 9.7 | 0.00 | 0.00 | 0.00 | 89 | 1011.6 |
| 20260509053042 | 20 | 192 | 4.8 | 17.7 | 0.00 | 0.00 | 0.00 | 88 | 1011.8 |
| 20260509051541 | 20 | 174 | 8.0 | 17.7 | 0.00 | 0.00 | 0.00 | 88 | 1011.4 |
| 20260509050039 | 20 | 178 | 9.7 | 24.1 | 0.00 | 0.00 | 0.00 | 87 | 1011.1 |
| 20260509044536 | 20 | 167 | 9.7 | 22.5 | 0.00 | 0.00 | 0.00 | 87 | 1011.0 |
| 20260509043036 | 20 | 199 | 8.0 | 22.5 | 0.00 | 0.00 | 0.00 | 86 | 1011.1 |
| 20260509041535 | 21 | 202 | 9.7 | 19.3 | 0.00 | 0.00 | 0.00 | 86 | 1010.9 |
| 20260509040036 | 21 | 169 | 8.0 | 16.1 | 0.00 | 0.00 | 0.00 | 86 | 1011.0 |
| 20260509034539 | 21 | 184 | 9.7 | 22.5 | 0.00 | 0.00 | 0.00 | 85 | 1010.9 |